www.pogodaiklimat.ru

Погода и климат >> Архив погоды >> Франция >> Лангр


ПОГОДА в Лангре

  • Прогноз погоды в Лангре
  • Монитор погоды в Лангре

АРХИВ ПОГОДЫ в Лангре

Время (UTC), дата Ветер
(напр.,м/с)
 
Видим.   Явления Облачность Т
(С)
Тd
(С)
f
(%)
Тe
(С)
Тes
(С)
Комфортность P
(гПа)
Po
(гПа)
Тmin
(С)
Tmax
(С)
R
(мм)
R24
(мм)
S
(см)
10 13.09 С 1 20 км 8/8 800 м
[]
+22.2 +13.3 57 +25 +27 комфорт 1031.3 977.7
11 13.09 СВ 2 20 км н/о +22.9 +13.1 54 +26 +26 жарко 1030.7 977.2
12 13.09 С 2
{7}
20 км н/о +23.3 +12.6 51 +26 +26 жарко 1030.4 977.0 0
13 13.09 СВ 2 20 км н/о +23.7 +12.0 48 +25 +25 комфорт 1030.1 976.8
14 13.09 С 2 20 км н/о +24.3 +11.6 45 +26 +26 жарко 1029.8 976.6
15 13.09 С 1
{8}
20 км н/о +24.4 +11.4 44 +26 +26 жарко 1029.2 976.0 0
16 13.09 С 1 20 км н/о +24.3 +10.6 42 +25 +25 комфорт 1029.0 975.8
17 13.09 СВ 1 20 км н/о +23.4 +11.1 46 +26 +26 жарко 1029.0 975.7
18 13.09 С 1
{4}
20 км н/о +21.2 +12.1 56 +23 +23 комфорт 1029.4 975.7 +15.7 +24.9 0
19 13.09 С 2 20 км н/о +19.1 +13.3 69 +21 +21 комфорт 1030.1 976.0
20 13.09 С 1 20 км н/о +17.4 +13.3 77 +18 +18 1030.7 976.3
21 13.09 СВ 1
{6}
20 км н/о +16.4 +12.9 80 +17 +17 1031.1 976.4 0
22 13.09 СВ 1 20 км н/о +15.4 +12.5 83 +17 +17 1031.0 976.2
23 13.09 СВ 1 20 км н/о +15.5 +12.6 83 +17 +17 1030.7 975.9
00 14.09 СВ 1
{4}
20 км н/о +15.0 +12.5 85 +15 +15 1030.3 975.4 0
01 14.09 СВ 1 20 км н/о +14.7 +12.4 86 +15 +15 1029.8 974.9
02 14.09 СВ 1 20 км н/о +14.3 +12.2 87 +15 +15 1029.8 974.8
03 14.09 СВ 1
{5}
20 км н/о +14.0 +12.2 89 +14 +14 1029.6 974.6 0
04 14.09 СВ 1 16 км н/о +13.4 +11.8 90 +14 +14 1029.4 974.3
05 14.09 СВ 1 11 км н/о +13.3 +12.0 92 +13 +13 1029.7 974.5
06 14.09 СВ 1
{5}
10 км н/о +13.7 +12.4 92 +14 +14 1030.1 975.0 +13.3 +21.2 0
07 14.09 СВ 1 17 км н/о +15.8 +12.7 82 +16 +16 1029.6 974.9
08 14.09 СВ 1 19 км н/о +18.0 +13.3 74 +19 +19 1029.4 975.1
09 14.09 СВ 1
{4}
19 км н/о +20.3 +13.7 66 +24 +24 комфорт 1028.6 974.8 0
10 14.09 В 2 20 км н/о +22.7 +13.7 57 +26 +26 жарко 1027.8 974.5
11 14.09 В 1 20 км н/о +24.8 +14.0 51 +27 +27 жарко 1027.0 974.1
12 14.09 В 1
{6}
20 км н/о +25.5 +13.4 47 +28 +28 жарко 1026.3 973.5 0
13 14.09 СВ 2 20 км н/о +26.4 +12.8 43 +28 +28 жарко 1025.6 973.0
14 14.09 ЮВ 1 20 км н/о +26.9 +12.9 42 +29 +29 жарко 1025.1 972.6
15 14.09 СВ 1
{5}
20 км н/о +26.3 +13.1 44 +28 +28 жарко 1024.8 972.2 0
16 14.09 СВ 1 20 км н/о +25.9 +13.4 46 +28 +28 жарко 1024.6 972.0
17 14.09 СВ 1 20 км н/о +23.7 +13.0 51 +26 +26 жарко 1025.2 972.2
18 14.09 СВ 1
{5}
20 км н/о +21.7 +13.1 58 +24 +24 комфорт 1025.6 972.2 +13.7 +27.1 0
19 14.09 СВ 1 20 км н/о +20.4 +13.4 64 +24 +24 комфорт 1026.0 972.3
20 14.09 СВ 1 20 км н/о +19.9 +13.1 65 +23 +23 комфорт 1026.1 972.3
21 14.09 СВ 1
{3}
20 км н/о +18.8 +12.8 68 +21 +21 комфорт 1026.2 972.2 0
22 14.09 СВ 1 20 км н/о +18.5 +12.7 69 +20 +20 1025.9 971.9
23 14.09 СВ 1 20 км н/о +17.3 +12.6 74 +19 +19 1025.8 971.6
00 15.09 ЮВ 1
{2}
20 км н/о +16.4 +12.4 77 +18 +18 1025.7 971.3 0
01 15.09 В 1 20 км н/о +16.8 +13.1 79 +18 +18 1025.4 971.1
02 15.09 В 1 20 км н/о +15.4 +12.9 85 +17 +17 1025.4 970.9
03 15.09 В 1
{2}
20 км н/о +15.6 +12.9 84 +17 +17 1025.3 970.8 0
04 15.09 ЮВ 1 20 км н/о +16.1 +13.6 85 +17 +17 1024.9 970.5
05 15.09 В 1 20 км н/о +16.4 +13.3 82 +17 +17 1024.7 970.4
06 15.09 В 1
{3}
20 км н/о +16.0 +13.7 86 +17 +17 1024.8 970.4 +15.3 +21.7 0
07 15.09 ЮВ 1 20 км н/о +19.3 +13.9 71 +22 +22 комфорт 1024.4 970.6
08 15.09 В 1 20 км н/о +21.3 +14.5 65 +24 +24 комфорт 1024.1 970.7
09 15.09 В 1
{3}
20 км н/о +23.6 +15.1 59 +26 +26 жарко 1023.7 970.8 0
10 15.09 В 1 20 км н/о +25.6 +14.4 50 +28 +28 жарко 1023.4 970.8
11 15.09 В 1 20 км н/о +26.1 +13.2 45 +28 +28 жарко 1022.6 970.1
12 15.09 ЮВ 1
{6}
20 км н/о +27.6 +12.8 40 +29 +29 жарко 1021.9 969.7 0
13 15.09 В 2 20 км н/о +27.8 +12.6 39 +29 +29 жарко 1021.4 969.2
14 15.09 В 1 20 км н/о +28.1 +12.8 39 +30 +30 жарко 1020.6 968.5
15 15.09 ЮВ 2
{5}
20 км н/о +28.6 +12.1 36 +30 +30 жарко 1020.0 968.0 0
16 15.09 ЮВ 1 20 км н/о +28.4 +12.3 37 +30 +30 жарко 1019.5 967.5
17 15.09 ЮВ 1 20 км н/о +27.1 +12.3 40 +29 +29 жарко 1019.5 967.3
18 15.09 штиль 0
{2}
15 км н/о +23.8 +13.1 51 +26 +26 жарко 1020.2 967.4 +16.1 +29.6 0
19 15.09 С 1 20 км н/о +23.4 +12.7 51 +26 +26 жарко 1020.6 967.7
20 15.09 С 1 20 км н/о +21.9 +12.4 55 +24 +24 комфорт 1021.2 968.0
21 15.09 С 1
{3}
20 км н/о +21.2 +12.9 59 +23 +23 комфорт 1021.4 968.1 0
22 15.09 С 1 20 км н/о +21.2 +12.9 59 +23 +23 комфорт 1021.4 968.1
23 15.09 С 1 20 км н/о +20.5 +12.2 59 +24 +24 комфорт 1021.3 967.9
00 16.09 СВ 1
{4}
20 км н/о +19.7 +11.7 60 +22 +22 комфорт 1021.1 967.5 0
01 16.09 СВ 1 20 км н/о +19.3 +11.3 60 +21 +21 комфорт 1020.8 967.2
02 16.09 СВ 1 20 км н/о +18.4 +11.0 62 +20 +20 1020.6 966.8
03 16.09 СВ 1
{2}
20 км н/о +17.6 +10.9 65 +19 +19 1020.3 966.4 0
04 16.09 СВ 1 20 км н/о +15.1 +10.5 74 +16 +16 1020.7 966.3
05 16.09 С 1 20 км н/о +16.6 +10.4 67 +18 +18 1020.3 966.2
06 16.09 штиль 0
{3}
20 км н/о +15.8 +10.8 72 +16 +16 1020.3 966.1 +14.7 +24.0 0
07 16.09 СВ 1 20 км н/о +21.2 +11.5 54 +23 +23 комфорт 1019.7 966.5
08 16.09 В 1 20 км н/о +22.8 +11.2 48 +25 +25 комфорт 1019.5 966.6
09 16.09 СЗ 1
{3}
20 км н/о +23.8 +11.5 46 +25 +25 комфорт 1019.6 966.8 0
10 16.09 СЗ 2 20 км н/о +24.6 +11.5 44 +26 +26 жарко 1019.4 966.8
11 16.09 СЗ 1 20 км н/о +25.3 +10.3 39 +26 +26 жарко 1019.1 966.6
12 16.09 З 2
{7}
20 км н/о +26.6 +9.4 34 +27 +27 жарко 1018.6 966.3 0
13 16.09 З 1 20 км н/о +27.6 +4.0 22 +26 +26 жарко 1017.9 965.8
14 16.09 З 2 20 км н/о +27.8 +2.8 20 +26 +26 жарко 1017.4 965.3
15 16.09 СЗ 2
{7}
20 км н/о +27.4 +2.4 20 +26 +26 жарко 1017.3 965.1 0
16 16.09 СЗ 1 20 км н/о +26.7 -2.1 15 +24 +24 комфорт 1017.2 964.9
17 16.09 СЗ 1 20 км н/о +25.1 +2.5 23 +24 +24 комфорт 1017.3 964.8
18 16.09 СЗ 1
{4}
20 км н/о +22.2 +3.3 29 +22 +22 комфорт 1018.1 965.0 +15.7 +28.2 0
19 16.09 СЗ 1 20 км н/о +20.6 +6.2 39 +23 +23 комфорт 1018.9 965.5
20 16.09 СЗ 1 20 км н/о +19.5 +6.9 44 +21 +21 комфорт 1019.1 965.5
21 16.09 СЗ 1
{4}
20 км н/о +18.7 +6.8 46 +20 +20 1019.3 965.6 0
22 16.09 С 1 20 км н/о +18.5 +3.5 37 +20 +20 1019.3 965.5
23 16.09 С 1 20 км н/о +17.8 +4.0 40 +19 +19 1019.3 965.4
00 17.09 С 1
{5}
20 км н/о +17.2 +6.1 48 +18 +18 1019.4 965.4 0
01 17.09 С 1 20 км н/о +16.5 +8.5 59 +18 +18 1019.4 965.3
02 17.09 СЗ 1 20 км н/о +15.4 +7.2 58 +17 +17 1019.4 965.1
03 17.09 СЗ 1
{3}
20 км н/о +14.8 +7.3 61 +16 +16 1019.5 965.1 0
04 17.09 С 1 20 км н/о +15.1 +8.3 64 +16 +16 1019.3 965.0
05 17.09 С 1 20 км н/о +14.7 +9.5 71 +16 +16 1019.5 965.1
06 17.09 С 1
{4}
20 км н/о +15.1 +10.3 73 +16 +16 1019.6 965.3 +14.5 +22.2 0
07 17.09 С 1 20 км н/о +16.5 +10.8 69 +17 +17 1019.7 965.6
08 17.09 СВ 1 20 км н/о +17.0 +11.3 69 +18 +18 1020.2 966.2
09 17.09 С 2
{6}
20 км н/о +19.0 +12.3 65 +21 +21 комфорт 1020.0 966.4 0
10 17.09 С 2 20 км 10/10 750 м
[]
+19.2 +12.0 63 +21 +21 комфорт 1020.0 966.4
11 17.09 С 1 20 км 10/10 1000 м
[]
+20.8 +11.1 54 +24 +24 комфорт 1019.5 966.2
12 17.09 С 2
{7}
20 км 10/10 1000 м
[]
+19.6 +11.1 58 +22 +22 комфорт 1019.6 966.1 0
13 17.09 С 1 20 км 9/9 1020 м
[]
+19.9 +10.9 56 +22 +23 комфорт 1019.2 965.8
14 17.09 С 1 20 км 8/8 1230 м
[]
+21.3 +9.8 48 +23 +24 комфорт 1018.8 965.6
15 17.09 С 1
{7}
20 км н/о +21.6 +9.8 47 +23 +23 комфорт 1018.5 965.4 0
16 17.09 С 2 20 км н/о +20.9 +8.5 45 +23 +23 комфорт 1018.6 965.3
17 17.09 С 1 20 км н/о +19.8 +8.5 48 +22 +22 комфорт 1018.8 965.3
18 17.09 С 2
{7}
20 км н/о +17.6 +8.7 56 +18 +18 1019.4 965.5 +15.2 +22.6 0
19 17.09 С 2 20 км н/о +16.2 +8.4 60 +17 +17 1020.3 966.1
20 17.09 С 2 20 км н/о +15.1 +7.9 62 +15 +15 1020.7 966.3
21 17.09 С 1
{6}
20 км н/о +14.2 +7.0 62 +15 +15 1020.9 966.3 0
22 17.09 С 2 20 км н/о +13.6 +6.7 63 +13 +13 1021.1 966.4
23 17.09 СВ 2 20 км н/о +12.4 +6.2 66 +12 +12 1021.4 966.4
00 18.09 С 2
{7}
20 км н/о +11.6 +5.5 66 +11 +11 1021.8 966.6 0
01 18.09 С 2 20 км н/о +10.9 +5.4 69 +10 +10 1021.9 966.6
02 18.09 С 2 20 км н/о +10.5 +5.5 71 +10 +10 1021.9 966.5
03 18.09 СВ 1
{8}
20 км н/о +9.8 +5.4 74 +9 +9 1022.0 966.5 0
04 18.09 С 1 20 км н/о +9.1 +5.3 77 +9 +9 1022.2 966.5
05 18.09 СВ 2 20 км н/о +8.5 +5.1 79 +7 +7 1022.2 966.4
06 18.09 СВ 2
{7}
20 км н/о +8.6 +5.3 80 +7 +7 1022.4 966.6 +8.2 +17.6 0
07 18.09 СВ 2 20 км н/о +9.9 +5.3 73 +9 +9 1022.6 967.1
08 18.09 СВ 2 20 км н/о +11.5 +5.1 65 +11 +11 1022.6 967.4
09 18.09 СВ 2
{7}
20 км н/о +13.6 +5.5 58 +14 +14 1022.2 967.4 0
10 18.09 СВ 2 20 км н/о +14.9 +5.1 52 +15 +15 1021.9 967.3
11 18.09 СВ 2 20 км н/о +16.9 +4.9 45 +17 +17 1021.4 967.2
12 18.09 СВ 2
{11}
19 км н/о +17.7 +4.3 41 +18 +18 1021.3 967.3 0
13 18.09 С 3 20 км н/о +18.6 +3.2 36 +19 +19 1021.1 967.2
14 18.09 С 3 20 км н/о +17.1 +0.7 33 +17 +17 1021.5 967.3
15 18.09 С 3
{11}
20 км 10/0
[]
+17.1 -0.6 30 +17 +17 1021.3 967.1 0
16 18.09 С 3 20 км н/о +17.6 -0.7 29 +18 +18 1020.9 966.8
17 18.09 С 2 20 км н/о +16.8 -1.4 29 +17 +17 1021.2 967.0
18 18.09 С 2
{11}
20 км н/о +15.1 -1.1 33 +15 +15 1022.1 967.5 +8.6 +19.0 0
19 18.09 С 2 20 км н/о +13.8 +0.4 40 +14 +14 1023.0 968.1
20 18.09 СВ 1 20 км н/о +12.7 +1.1 45 +13 +13 1023.6 968.5
21 18.09 СВ 1
{6}
20 км н/о +11.9 +1.8 50 +12 +12 1023.9 968.6 0
22 18.09 СВ 2 20 км н/о +11.4 +1.9 52 +11 +11 1024.1 968.7
23 18.09 С 2 20 км н/о +11.0 +1.8 53 +10 +10 1024.4 968.9
00 19.09 С 1
{6}
20 км н/о +9.9 +2.0 58 +10 +10 1024.7 969.0 0
01 19.09 С 2 20 км н/о +9.4 +2.3 61 +9 +9 1024.6 968.8
02 19.09 С 2 20 км н/о +9.1 +2.4 63 +8 +8 1024.5 968.7
03 19.09 СВ 2
{8}
20 км н/о +8.6 +2.2 64 +8 +8 1024.7 968.8 0
04 19.09 С 1 20 км н/о +8.0 +2.0 66 +7 +7 1024.9 968.8
05 19.09 С 2 20 км н/о +7.6 +1.9 67 +6 +6 1025.2 969.0
06 19.09 СВ 1
{6}
20 км н/о +7.5 +2.0 68 +7 +7 1025.4 969.2 +7.3 +15.1 0
07 19.09 СВ 2 20 км н/о +9.8 +2.2 59 +9 +9 1025.2 969.5
08 19.09 СВ 2 19 км н/о +11.8 +2.3 52 +11 +11 1025.5 970.1
09 19.09 СВ 2
{10}
20 км н/о +14.8 +1.7 41 +15 +15 1024.9 970.1 0
10 19.09 СВ 2 20 км н/о +15.6 +1.3 38 +16 +16 1024.8 970.2
11 19.09 СВ 3 20 км н/о +16.5 +1.4 36 +17 +17 1024.7 970.2
12 19.09 СВ 3
{12}
20 км н/о +17.3 +0.9 33 +17 +17 1024.3 970.0 0
13 19.09 СВ 2 20 км н/о +18.1 +1.1 32 +19 +19 1023.9 969.8
14 19.09 С 3 20 км н/о +18.4 +0.5 30 +19 +19 1023.7 969.6
15 19.09 СВ 2
{12}
20 км н/о +17.9 +0.1 30 +18 +18 1023.7 969.5 0
16 19.09 СВ 3 20 км н/о +16.9 -0.8 30 +17 +17 1023.8 969.4
17 19.09 СВ 2 20 км н/о +15.8 0.0 34 +16 +16 1024.3 969.7
18 19.09 СВ 2
{8}
20 км н/о +14.1 0.0 38 +14 +14 1024.7 969.8 +7.5 +18.8 0
19 19.09 СВ 1 20 км н/о +12.7 -0.2 41 +13 +13 1025.4 970.2
20 19.09 СВ 1 20 км н/о +11.9 +1.2 48 +12 +12 1025.7 970.3
21 19.09 СВ 1
{7}
20 км н/о +11.2 +1.7 52 +11 +11 1025.9 970.4 0
22 19.09 СВ 1 20 км н/о +10.3 +1.6 55 +11 +11 1026.4 970.7
23 19.09 СВ 1 20 км н/о +9.9 +1.3 55 +11 +11 1026.2 970.4
00 20.09 СВ 1
{4}
20 км н/о +8.8 +1.2 59 +10 +10 1026.3 970.3 0
01 20.09 СВ 1 20 км н/о +8.2 +0.9 60 +8 +8 1026.1 970.0
02 20.09 СВ 1 20 км н/о +7.6 +0.6 61 +8 +8 1025.9 969.7
03 20.09 СВ 1
{3}
20 км н/о +6.5 +0.4 65 +7 +7 1025.8 969.4 0
04 20.09 СВ 1 20 км н/о +6.2 +0.3 66 +7 +7 1025.5 969.0
05 20.09 СВ 1 20 км н/о +6.0 +0.3 67 +5 +5 1025.3 968.8
06 20.09 В 2
{4}
20 км н/о +6.7 +0.6 65 +5 +5 1025.3 969.0 +6.0 +14.1 0
07 20.09 В 1 20 км н/о +9.8 +0.9 54 +10 +10 1024.9 969.2
08 20.09 В 2 19 км н/о +12.2 +1.2 47 +12 +12 1024.7 969.4
09 20.09 В 2 20 км н/о +14.4 +1.3 41 +14 +14 1024.2 969.4
10 20.09 В 3 20 км н/о +15.9 +0.8 36 +16 +16 1023.6 969.1
11 20.09 В 3 20 км н/о +17.7 +1.2 33 +18 +18 1022.7 968.6

 

Местоположение метеостанции Лангр (Франция): широта 47.85 долгота 5.33 высота над уровнем моря 467 м.

В архиве по умолчанию представлена погода в Лангре за последнюю неделю. Архивные данные за месяц целиком и за предыдущие месяцы, начиная с января 2011 года, Вы можете получить, выбрав интересующий диапазон дат из раскрывающегося списка и нажав кнопку "Ввод!".


*Определитесь, кто Вы:
робот инопланетянин человек

Внимание! Время в таблицах - всемирное. Для получения местного времени необходимо прибавить поправку, которая равна 1 ч.

Смотрите также архив погоды в соседних городах и на ближайших метеорологических станциях:

Погода в Дижоне (Франция) (67 км)
Погода в Люксей-ле-Бене (Франция) (79 км)
Погода в Безансоне (Франция) (83 км)
Погода на Базе ВВС Lanveoc Poulmic (Франция) (88 км)
Погода в Доле (Франция) (91 км)
Погода в Сен-Дизье (Франция) (92 км)
Погода на Базе ВВС Nancy Ochey (Франция) (94 км)
Погода в Труа (Франция) (111 км)
Погода в Нанси (Франция) (113 км)
Погода в Доране (Франция) (117 км)

Пояснения к столбцам:

Ветер - указаны скорость ветра в м/с - средняя за 10 мин, порывы в срок и между сроками (в фигурных скобках) и направление, откуда дует ветер: С - северный, СВ - северо-восточный, В - восточный, ЮВ - юго-восточный, Ю - южный, ЮЗ - юго-западный, З - западный, СЗ - северо-западный.
Видимость - горизонтальная дальность видимости в метрах или километрах. При видимости от 1 до 10 км при отсутствии осадков обычно наблюдается дымка, при ухудшении видимости до 1 км и менее - туман. В сухую погоду видимость может ухудшаться дымом, пылью или мглою.
Явления - указаны атмосферные явления, наблюдавшиеся в срок или в последний час перед сроком; фигурными скобками обозначены явления, наблюдавшиеся между сроками (за 1-3 часа до срока); квадратными скобками обозначены град или гололедные отложения с указанием их диаметра в мм.
Облачность - указаны через наклонную черту общая и нижняя облачность в баллах и высота нижней границы облаков в метрах; квадратными скобками обозначены формы облаков: Ci - перистые, Cs - перисто-слоистые, Cc - перисто-кучевые, Ac - высококучевые, As - высокослоистые, Sc - слоисто-кучевые, Ns - слоисто-дождевые, Cu - кучевые, Cb - кучево-дождевые. Подробнее классификацию облаков см. в Атласе облаков (PDF).
T - Температура воздуха - температура, измеренная на высоте 2 м над землей.
Td - Температура точки росы - температура, при понижении до которой содержащийся в воздухе водяной пар достигнет насыщения.
f - Относительная влажность воздуха - влажноcть воздуха, измеренная на высоте 2 м над землей.
Te - Эффективная температура - температура, которую ощущает одетый по сезону человек в тени. Характеристика душности погоды. При расчете учитывается влияние влажности воздуха и скорости ветра на теплоощущения человека.
Tes - Эффективная температура на солнце - температура, которую ощущает человек, с поправкой на солнечный нагрев. Характеристика знойности погоды. Зависит от высоты солнца над горизонтом, облачности и скорости ветра. Ночью, в пасмурную погоду, а также при ветре 12 м/с и более поправка равна нулю.
P - Атмосферное давление - приведенное к уровню моря атмосферное давление.
Po - Атмосферное давление - измеренное на уровне метеостанции атмосферное давление.
Tmin - Минимальная температура - минимум температуры воздуха на высоте 2 м над землей.
Tmax - Максимальная температура - максимум температуры воздуха на высоте 2 м над землей.
R - Количество осадков - Количество выпавших осадков за период времени, мм. При наведении курсора мыши на число - период времени, за который выпало указанное количество осадков.
R24 - Количество осадков - Количество выпавших осадков за 24 часа, мм.
S - Снежный покров - Высота снежного покрова, см. При наведении курсора мыши на число - состояние снежного покрова и степень покрытия местности в баллах.